Find Starlink 11295

NORAD ID: 61536 Int'l Des: 2024-184 Owner: SPXS Country: US Constellation: starlink operational
LEOCIRCULAR

实时位置

正在加载3D地球...

关于 Starlink 11295

正在加载描述...

即将过境

Passes for default location (London). Set your location on the main map for personalized predictions.

高度历史

Loading altitude history...

两行轨道根数

1 61536U 24184E 26126.53445312 -.00002606 00000-0 -16669-4 0 9992
2 61536 53.1587 311.0304 0001676 154.0873 206.0229 15.69690015 89507
Epoch: May 6, 2026 • Age: 19 hours

当前状态

高度 365.6 km
速度 7.70 km/s
星下点 50.96°N, 36.5°E
发射日期 Oct 15, 2024
运行时间 1.5 years
类型 internet

技术详情

分类 Payload
质量 960.00 kg
干质量 910.00 kg
总质量 960.00 kg
长度 0.30 m
直径 4.10 m
跨度 29.00 m
形状 Box + pan
制造商 SPXS
平台类型 Starlink V2MD
阶段状态 In Orbit
所有者/国家 SPXS/US

Most Searched